Weather History for Craig, CO

Change the Weather History Date:

Sunday, January 6, 2013

  Actual Average Record
Temperature  
Mean Temperature -3 °F 15 °F  
Max Temperature 10 °F 29 °F 46 °F (2012)
Min Temperature -17 °F 1 °F -18 °F (2007)
Degree Days  
Heating Degree Days 68 50  
Month to date heating degree days 416 300  
Since 1 July heating degree days 3587 3856  
Cooling Degree Days 0 0  
Month to date cooling degree days 0 0  
Year to date cooling degree days 0 0  
Moisture  
Dew Point -14 °F    
Average Humidity 68    
Maximum Humidity 79    
Minimum Humidity 57    
Precipitation  
Precipitation 0.00 in 0.03 in 0.16 in (2005)
Month to date precipitation T 0.16  
Year to date precipitation T 0.16  
Sea Level Pressure  
Sea Level Pressure 30.46 in    
Wind  
Wind Speed 0 mph (North)    
Max Wind Speed 3 mph    
Max Gust Speed 6 mph    
Visibility 5 miles    
Events      
T = Trace of Precipitation, MM = Missing Value Source: NWS Daily Summary

Daily Weather History Graph

Daily Weather History Graph

Search for Another Location

Airport:

Trip Planner

Search our weather history database for the weather conditions in past years. The results will help you decide how hot, cold, wet, or windy it might be!

Date:

Astronomy

Jan. 06, 2013 Rise Set
Actual Time 7:33 AM MST 4:58 PM MST
Civil Twilight 7:03 AM MST 5:29 PM MST
Nautical Twilight 6:29 AM MST 6:03 PM MST
Astronomical Twilight 5:56 AM MST 6:36 PM MST
Moon 1:50 AM MST (1/6) 12:28 PM MST (1/6)
Length of Visible Light 10h 26m
Length of Day
9h 25m
Waning Crescent, 32% of the Moon is Illuminated
Jan 6
Waning Crescent
Jan 11
New
Jan 18
First Quarter
Jan 26
Full
Feb 3
Last Quarter

Hourly Weather History & Observations

Time (MST) Temp. Dew Point Humidity Pressure Visibility Wind Dir Wind Speed Gust Speed Precip Events Conditions
12:26 AM -11.2 °F -20.2 °F 64% 30.35 in 1.8 mi Calm Calm - N/A   Haze
12:34 AM -11.2 °F -20.2 °F 64% 30.35 in 3.0 mi Calm Calm - N/A   Haze
12:53 AM -11.9 °F -20.9 °F 64% 30.74 in 8.0 mi Calm Calm - N/A   Overcast
1:43 AM -11.2 °F -18.4 °F 70% 30.34 in 1.2 mi Calm Calm - N/A   Haze
1:45 AM -11.2 °F -18.4 °F 70% 30.34 in 0.8 mi Calm Calm - N/A   Haze
1:53 AM -11.9 °F -18.9 °F 71% 30.73 in 0.5 mi Calm Calm - N/A   Haze
1:56 AM -13.0 °F -20.2 °F 70% 30.34 in 1.2 mi Calm Calm - N/A   Haze
2:03 AM -11.2 °F -20.2 °F 64% 30.34 in 2.5 mi Calm Calm - N/A   Haze
2:14 AM -11.2 °F -20.2 °F 64% 30.34 in 6.0 mi Calm Calm - N/A   Haze
2:49 AM -14.8 °F -22.0 °F 70% 30.33 in 5.0 mi Calm Calm - N/A   Haze
2:53 AM -15.0 °F -23.1 °F 67% 30.73 in 3.0 mi Calm Calm - N/A   Haze
2:58 AM -14.8 °F -23.8 °F 64% 30.33 in 1.8 mi Calm Calm - N/A   Haze
3:07 AM -14.8 °F -20.2 °F 77% 30.32 in 3.0 mi Calm Calm - N/A   Haze
3:17 AM -14.8 °F -22.0 °F 70% 30.32 in 2.0 mi Calm Calm - N/A   Haze
3:32 AM -16.6 °F -22.0 °F 76% 30.31 in 1.2 mi Calm Calm - N/A   Haze
3:38 AM -14.8 °F -20.2 °F 77% 30.31 in 3.0 mi Calm Calm - N/A   Haze
3:53 AM -15.0 °F -24.0 °F 64% 30.73 in 4.0 mi Calm Calm - N/A   Haze
4:21 AM -16.6 °F -23.8 °F 70% 30.30 in 10.0 mi Calm Calm - N/A   Scattered Clouds
5:05 AM -16.6 °F -25.6 °F 64% 30.28 in 10.0 mi Calm Calm - N/A   Scattered Clouds
5:14 AM -16.6 °F -25.6 °F 64% 30.29 in 10.0 mi Calm Calm - N/A   Mostly Cloudy
5:53 AM -14.1 °F -24.0 °F 61% 30.74 in 8.0 mi Calm Calm - N/A   Overcast
6:29 AM -13.0 °F -20.2 °F 70% 30.28 in 0.8 mi Calm Calm - N/A   Haze
6:53 AM -14.1 °F -20.0 °F 75% 30.75 in 0.2 mi Calm Calm - N/A   Haze
7:01 AM -13.0 °F -20.2 °F 70% 30.28 in 1.2 mi Calm Calm - N/A   Haze
7:06 AM -13.0 °F -20.2 °F 70% 30.28 in 0.8 mi Calm Calm - N/A   Haze
7:53 AM -11.0 °F -18.0 °F 71% 30.75 in 0.2 mi Calm Calm - N/A   Haze
8:53 AM -9.4 °F -16.6 °F 71% 30.28 in 1.2 mi Calm Calm - N/A   Haze
9:11 AM -7.6 °F -14.8 °F 71% 30.28 in 2.5 mi Calm Calm - N/A   Haze
9:31 AM -5.8 °F -14.8 °F 65% 30.28 in 3.0 mi Calm Calm - N/A   Haze
9:49 AM -5.8 °F -11.2 °F 77% 30.28 in 1.2 mi Calm Calm - N/A   Haze
9:51 AM -5.8 °F -11.2 °F 77% 30.28 in 0.8 mi Calm Calm - N/A   Haze
9:53 AM -4.0 °F -9.9 °F 76% 30.71 in 0.5 mi Calm Calm - N/A   Haze
10:05 AM -2.2 °F -9.4 °F 71% 30.27 in 1.5 mi Calm Calm - N/A   Haze
10:12 AM -2.2 °F -9.4 °F 71% 30.27 in 2.5 mi Calm Calm - N/A   Haze
10:16 AM -2.2 °F -9.4 °F 71% 30.27 in 1.0 mi Calm Calm - N/A   Haze
10:27 AM -2.2 °F -9.4 °F 71% 30.27 in 2.0 mi Calm Calm - N/A   Haze
10:35 AM -0.4 °F -7.6 °F 72% 30.26 in 6.0 mi Calm Calm - N/A   Haze
10:53 AM 1.0 °F -6.0 °F 72% 30.67 in 8.0 mi Calm Calm - N/A   Clear
11:53 AM 5.0 °F -8.0 °F 55% 30.60 in 10.0 mi Calm Calm - N/A   Clear
12:53 PM 7.0 °F -4.0 °F 61% 30.56 in 10.0 mi Calm Calm - N/A   Clear
1:53 PM 9.0 °F -0.9 °F 64% 30.53 in 10.0 mi Calm Calm - N/A   Clear
2:53 PM 7.0 °F -2.0 °F 67% 30.53 in 10.0 mi Calm Calm - N/A   Clear
3:53 PM 7.0 °F -0.9 °F 70% 30.53 in 10.0 mi Calm Calm - N/A   Clear
4:53 PM 5.0 °F -2.0 °F 73% 30.53 in 10.0 mi Calm Calm - N/A   Clear
5:53 PM 1.9 °F -4.0 °F 76% 30.54 in 10.0 mi Calm Calm - N/A   Partly Cloudy
6:53 PM 1.9 °F -4.0 °F 76% 30.53 in 10.0 mi Calm Calm - N/A   Clear
7:53 PM 1.9 °F -4.0 °F 76% 30.51 in 10.0 mi Calm Calm - N/A   Clear
8:53 PM 1.0 °F -5.1 °F 75% 30.51 in 10.0 mi Calm Calm - N/A   Clear
9:53 PM 1.0 °F -5.1 °F 75% 30.47 in 10.0 mi Calm Calm - N/A   Mostly Cloudy
10:53 PM 1.9 °F -4.0 °F 76% 30.43 in 10.0 mi Calm Calm - N/A   Mostly Cloudy
11:53 PM -2.9 °F -7.1 °F 82% 30.45 in 10.0 mi Calm Calm - N/A   Clear